STARLINK-1325 (45554 NORAD) Tracking and Keplerian Element Data

This shows tracking and keplerian element data for the satellite.

Feedback or suggestion? Click here.




ElementValue
Catalog45554
NameSTARLINK-1325
Epoch Orbit1194
Epoch Day185.50001157
Epoch Year2020
RAAN47.0691
Inclination52.9984
Eccentricity0.0001348
Argument of Perigee54.7206
Mean Anonmoly188.2666
Mean Motion15.60189411
Decay Rate-0.01186821
L11 45554U 20025Z 20185.50001157 -.01186821 00000-0 -15902-1 0 9994
L22 45554 52.9984 47.0691 0001348 54.7206 188.2666 15.60189411 11947

Live tracking and technical data element details for STARLINK-1325 (NORAD 45554). STARLINK-1325 can be tracked NOW for your location showing map with azimuth and elevation plus other details from your city location.

Track the satellite on the map from your city or location and see movement details for azimuth, elevation, latitude, longitude, range, height, and movement on the map or in text.







IsCatalogInMostPopularTable: catalog: 45554, numindb: 18
Update: records affected: 1



GetName: 45554 STARLINK-1325

Hit Count: updated at: Fri, 03 Jul 2020 16:56:04 GMT